Weather History for Moncks Corner, SC

Change the Weather History Date:

Sunday, November 25, 2012

  Actual Average (KCHS) Record (KCHS)
Temperature  
Mean Temperature 46 °F 56 °F  
Max Temperature 60 °F 67 °F 82 °F (1973)
Min Temperature 33 °F 45 °F 15 °F (1950)
Degree Days  
Heating Degree Days 18 9  
Month to date heating degree days 171  
Since 1 July heating degree days 240  
Cooling Degree Days 0 1  
Month to date cooling degree days 30  
Year to date cooling degree days 2294  
Moisture  
Dew Point 31 °F    
Average Humidity 60    
Maximum Humidity 93    
Minimum Humidity 34    
Precipitation  
Precipitation 0.00 in 0.08 in 1.87 in (1972)
Month to date precipitation 2.02  
Year to date precipitation 47.51  
Sea Level Pressure  
Sea Level Pressure 30.14 in    
Wind  
Wind Speed 3 mph (ENE)    
Max Wind Speed 8 mph    
Max Gust Speed -    
Visibility 8 miles    
Events      
T = Trace of Precipitation, MM = Missing Value Source: NWS Daily Summary

Daily Weather History Graph

Daily Weather History Graph

Search for Another Location

Airport:

Trip Planner

Search our weather history database for the weather conditions in past years. The results will help you decide how hot, cold, wet, or windy it might be!

Date:

Astronomy

Nov. 25, 2012 Rise Set
Actual Time 7:00 AM EST 5:13 PM EST
Civil Twilight 6:33 AM EST 5:40 PM EST
Nautical Twilight 6:03 AM EST 6:10 PM EST
Astronomical Twilight 5:33 AM EST 6:40 PM EST
Moon 3:25 PM EST (11/25) 4:19 AM EST (11/25)
Length of Visible Light 11h 06m
Length of Day
10h 13m
Waxing Gibbous, 93% of the Moon is Illuminated
Nov 25
Waxing Gibbous
Nov 28
Full
Dec 6
Last Quarter
Dec 13
New
Dec 20
First Quarter

Hourly Weather History & Observations

Time (EST) Temp. Windchill Dew Point Humidity Pressure Visibility Wind Dir Wind Speed Gust Speed Precip Events Conditions
12:15 AM 35.6 °F - 33.8 °F 93% 30.10 in 7.0 mi Calm Calm - N/A   Clear
12:35 AM 37.4 °F - 33.8 °F 87% 30.11 in 10.0 mi Calm Calm - N/A   Clear
1:15 AM 41.0 °F 37.1 °F 28.4 °F 61% 30.11 in 10.0 mi NE 5.8 mph - N/A   Clear
1:35 AM 41.0 °F 35.8 °F 26.6 °F 57% 30.11 in 10.0 mi NE 8.1 mph - N/A   Clear
2:15 AM 39.2 °F 37.0 °F 26.6 °F 61% 30.11 in 7.0 mi ENE 3.5 mph - N/A   Clear
2:35 AM 39.2 °F 35.9 °F 26.6 °F 61% 30.12 in 10.0 mi NE 4.6 mph - N/A   Clear
2:55 AM 37.4 °F 32.8 °F 26.6 °F 65% 30.13 in 7.0 mi NE 5.8 mph - N/A   Clear
3:15 AM 37.4 °F 32.8 °F 26.6 °F 65% 30.13 in 10.0 mi NE 5.8 mph - N/A   Clear
3:35 AM 37.4 °F 33.8 °F 26.6 °F 65% 30.13 in 10.0 mi NE 4.6 mph - N/A   Clear
3:55 AM 37.4 °F 32.8 °F 24.8 °F 60% 30.14 in 10.0 mi NE 5.8 mph - N/A   Clear
4:15 AM 37.4 °F 32.8 °F 24.8 °F 60% 30.14 in 10.0 mi NE 5.8 mph - N/A   Clear
4:35 AM 35.6 °F 31.7 °F 24.8 °F 65% 30.14 in 7.0 mi NE 4.6 mph - N/A   Clear
4:55 AM 35.6 °F 31.7 °F 24.8 °F 65% 30.14 in 7.0 mi NE 4.6 mph - N/A   Clear
5:15 AM 35.6 °F 32.8 °F 24.8 °F 65% 30.15 in 10.0 mi NNE 3.5 mph - N/A   Clear
5:35 AM 35.6 °F 32.8 °F 24.8 °F 65% 30.15 in 10.0 mi ENE 3.5 mph - N/A   Clear
6:15 AM 35.6 °F 30.7 °F 24.8 °F 65% 30.17 in 10.0 mi ENE 5.8 mph - N/A   Clear
6:35 AM 35.6 °F 30.7 °F 23.0 °F 60% 30.17 in 10.0 mi ENE 5.8 mph - N/A   Clear
6:55 AM 33.8 °F 28.6 °F 23.0 °F 65% 30.17 in 10.0 mi NE 5.8 mph - N/A   Clear
7:15 AM 33.8 °F 28.6 °F 23.0 °F 65% 30.18 in 7.0 mi ENE 5.8 mph - N/A   Clear
7:55 AM 35.6 °F 31.7 °F 24.8 °F 65% 30.19 in 5.0 mi ENE 4.6 mph - N/A   Haze
8:15 AM 37.4 °F 32.1 °F 24.8 °F 60% 30.20 in 7.0 mi ENE 6.9 mph - N/A   Clear
8:35 AM 39.2 °F 33.6 °F 24.8 °F 56% 30.20 in 7.0 mi East 8.1 mph - N/A   Clear
8:55 AM 39.2 °F 34.2 °F 23.0 °F 52% 30.19 in 7.0 mi East 6.9 mph - N/A   Clear
9:15 AM 41.0 °F 39.0 °F 24.8 °F 53% 30.21 in 7.0 mi ENE 3.5 mph - N/A   Clear
9:55 AM 44.6 °F 43.1 °F 23.0 °F 43% 30.21 in 7.0 mi ENE 3.5 mph - N/A   Clear
10:15 AM 46.4 °F 44.3 °F 23.0 °F 40% 30.21 in 7.0 mi ENE 4.6 mph - N/A   Clear
10:35 AM 48.2 °F - 23.0 °F 37% 30.21 in 7.0 mi Calm Calm - N/A   Clear
10:55 AM 50.0 °F - 23.0 °F 35% 30.20 in 7.0 mi East 4.6 mph - N/A   Clear
11:15 AM 50.0 °F - 23.0 °F 35% 30.19 in 7.0 mi Calm Calm - N/A   Clear
11:35 AM 51.8 °F - 24.8 °F 35% 30.19 in 10.0 mi Calm Calm - N/A   Clear
11:55 AM 51.8 °F - 28.4 °F 41% 30.18 in 7.0 mi Calm Calm - N/A   Clear
12:15 PM 51.8 °F - 28.4 °F 41% 30.17 in 7.0 mi Calm Calm - N/A   Clear
12:35 PM 53.6 °F - 28.4 °F 38% 30.16 in 7.0 mi Calm Calm - N/A   Clear
12:55 PM 53.6 °F - 28.4 °F 38% 30.15 in 7.0 mi Calm Calm - N/A   Clear
1:15 PM 55.4 °F - 30.2 °F 38% 30.13 in 10.0 mi Calm Calm - N/A   Clear
1:35 PM 57.2 °F - 30.2 °F 36% 30.12 in 7.0 mi Calm Calm - N/A   Clear
1:55 PM 59.0 °F - 32.0 °F 36% 30.11 in 10.0 mi Calm Calm - N/A   Clear
2:15 PM 60.8 °F - 33.8 °F 36% 30.10 in 10.0 mi SW 8.1 mph - N/A   Clear
2:35 PM 60.8 °F - 32.0 °F 34% 30.10 in 10.0 mi WSW 4.6 mph - N/A   Clear
2:55 PM 60.8 °F - 32.0 °F 34% 30.10 in 7.0 mi WSW 5.8 mph - N/A   Clear
3:15 PM 60.8 °F - 32.0 °F 34% 30.09 in 5.0 mi WSW 5.8 mph - N/A   Haze
3:35 PM 60.8 °F - 32.0 °F 34% 30.09 in 10.0 mi SW 5.8 mph - N/A   Clear
3:55 PM 60.8 °F - 32.0 °F 34% 30.09 in 7.0 mi WSW 4.6 mph - N/A   Clear
4:15 PM 60.8 °F - 33.8 °F 36% 30.09 in 7.0 mi SW 4.6 mph - N/A   Clear
4:35 PM 59.0 °F - 33.8 °F 39% 30.09 in 7.0 mi SW 3.5 mph - N/A   Clear
4:55 PM 57.2 °F - 35.6 °F 44% 30.09 in 7.0 mi Calm Calm - N/A   Clear
5:15 PM 55.4 °F - 37.4 °F 51% 30.08 in 10.0 mi Calm Calm - N/A   Clear
5:35 PM 51.8 °F - 39.2 °F 62% 30.10 in 7.0 mi Calm Calm - N/A   Clear
5:55 PM 50.0 °F - 39.2 °F 66% 30.10 in 10.0 mi Calm Calm - N/A   Clear
6:15 PM 48.2 °F - 39.2 °F 71% 30.11 in 10.0 mi Calm Calm - N/A   Clear
6:35 PM 46.4 °F - 41.0 °F 81% 30.12 in 10.0 mi Calm Calm - N/A   Clear
6:55 PM 46.4 °F - 39.2 °F 76% 30.13 in 10.0 mi Calm Calm - N/A   Clear
7:15 PM 44.6 °F - 39.2 °F 81% 30.13 in 7.0 mi Calm Calm - N/A   Clear
7:55 PM 44.6 °F - 39.2 °F 81% 30.13 in 10.0 mi Calm Calm - N/A   Clear
8:15 PM 42.8 °F - 39.2 °F 87% 30.14 in 10.0 mi Calm Calm - N/A   Clear
8:35 PM 42.8 °F - 39.2 °F 87% 30.14 in 7.0 mi Calm Calm - N/A   Clear
8:55 PM 41.0 °F - 39.2 °F 93% 30.14 in 7.0 mi Calm Calm - N/A   Clear
9:15 PM 41.0 °F - 39.2 °F 93% 30.14 in 5.0 mi Calm Calm - N/A   Clear
9:35 PM 41.0 °F - 39.2 °F 93% 30.15 in 7.0 mi Calm Calm - N/A   Clear
9:55 PM 41.0 °F - 37.4 °F 87% 30.15 in 5.0 mi Calm Calm - N/A   Clear
10:15 PM 39.2 °F - 37.4 °F 93% 30.15 in 7.0 mi Calm Calm - N/A   Clear
10:35 PM 39.2 °F - 37.4 °F 93% 30.15 in 7.0 mi Calm Calm - N/A   Clear
11:15 PM 39.2 °F - 35.6 °F 87% 30.15 in 5.0 mi Calm Calm - N/A   Clear
11:35 PM 39.2 °F - 35.6 °F 87% 30.15 in 5.0 mi Calm Calm - N/A   Clear
11:55 PM 39.2 °F - 35.6 °F 87% 30.15 in 7.0 mi Calm Calm - N/A   Clear